Abhaipura, India

8:16 PM IST on February 25, 2018 (GMT +0530)
Abhaipura

Weather History for 42348 - February, 2013

Change the Weather History Date:

Monday, February 25, 2013

  Actual Average Record
Temperature  
Mean Temperature 66 °F -  
Max Temperature 78 °F - - ()
Min Temperature 54 °F - - ()
Cooling Degree Days 1    
Growing Degree Days 16 (Base 50)    
Moisture  
Dew Point 52 °F    
Average Humidity 61    
Maximum Humidity 88    
Minimum Humidity 34    
Precipitation  
Precipitation 0.00 in - - ()
Sea Level Pressure  
Sea Level Pressure 30.08 in    
Wind  
Wind Speed 3 mph ()    
Max Wind Speed 7 mph    
Max Gust Speed -    
Visibility 1.8 miles    
Events      
T = Trace of Precipitation, MM = Missing Value Source: Averaged Metar Reports

Daily Weather History Graph

Daily Weather History Graph

Search for Another Location

Airport or City:

Trip Planner

Search our weather history database for the weather conditions in past years. The results will help you decide how hot, cold, wet, or windy it might be!

Date:

Astronomy

Feb. 25, 2013 Rise Set
Actual Time 6:54 AM IST 6:25 PM IST
Civil Twilight 6:31 AM IST 6:48 PM IST
Nautical Twilight 6:04 AM IST 7:15 PM IST
Astronomical Twilight 5:37 AM IST 7:42 PM IST
Moon 6:06 PM IST 6:10 AM IST
Length of Visible Light 12h 17m
Length of Day
11h 30m
Full, 100% of the Moon is Illuminated
Feb 25
Full
Feb 26
Full
Mar 5
Last Quarter
Mar 12
New
Mar 19
First Quarter

Hourly Weather History & Observations

Time (IST) Temp. Dew Point Humidity Pressure Visibility Wind Dir Wind Speed Gust Speed Precip Events Conditions
12:00 AM 60.8 °F 53.6 °F 77% 30.12 in 1.2 mi East 4.6 mph - N/A   Smoke
1:00 AM 60.8 °F 53.6 °F 77% 30.09 in 1.2 mi Variable 2.3 mph - N/A   Smoke
2:00 AM 60.8 °F 53.6 °F 77% 30.09 in 1.2 mi East 5.8 mph - N/A   Smoke
2:30 AM 60 °F 52 °F 69% 30.07 in 1 mi Calm Calm - -   Mist
4:00 AM 59.0 °F 51.8 °F 77% 30.06 in 1.2 mi Calm Calm - N/A   Partly Cloudy
5:00 AM 59.0 °F 51.8 °F 77% 30.06 in 1.2 mi Calm Calm - N/A   Partly Cloudy
5:30 AM 56 °F 50 °F 75% 30.05 in 1 mi Calm Calm - -   Mist
6:00 AM 57.2 °F 51.8 °F 82% 30.06 in 1.2 mi East 5.8 mph - N/A   Partly Cloudy
7:00 AM 55.4 °F 51.8 °F 88% 30.12 in 1.2 mi Variable 2.3 mph - N/A   Partly Cloudy
8:00 AM 59.0 °F 53.6 °F 82% 30.12 in 1.2 mi Calm Calm - N/A   Mist
8:30 AM 63 °F 55 °F 67% 30.11 in 1 mi East 2.3 mph - -   Mist
9:00 AM 62.6 °F 53.6 °F 72% 30.15 in 1.6 mi East 5.8 mph - N/A   Haze
10:00 AM 66.2 °F 51.8 °F 60% 30.18 in 2.2 mi ESE 5.8 mph - N/A   Haze
11:00 AM 69.8 °F 51.8 °F 53% 30.15 in 2.2 mi Variable 3.5 mph - N/A   Haze
11:30 AM 71 °F 53 °F 43% 30.10 in 1 mi SE 3.5 mph - -   Haze
12:00 PM 71.6 °F 53.6 °F 53% 30.12 in 2.5 mi SSE 5.8 mph - N/A   Haze
1:00 PM 71.6 °F 51.8 °F 50% 30.12 in 3.1 mi SSW 6.9 mph - N/A   Haze
2:00 PM 75.2 °F 50.0 °F 41% 30.06 in 3.7 mi Variable 5.8 mph - N/A   Partly Cloudy
2:30 PM 75 °F 53 °F 35% 30.03 in 2 mi SW 4.6 mph - -   Scattered Clouds
3:00 PM 75.2 °F 50.0 °F 41% 30.06 in 3.7 mi Variable 5.8 mph - N/A   Partly Cloudy
4:00 PM 75.2 °F 48.2 °F 38% 30.04 in 3.7 mi SW 5.8 mph - N/A   Partly Cloudy
5:30 PM 74 °F 51 °F 34% 30.00 in 2 mi SE 4.6 mph - -   Haze
6:00 PM 73.4 °F 48.2 °F 41% 30.04 in 2.5 mi East 5.8 mph - N/A   Haze
7:00 PM 69.8 °F 48.2 °F 46% 30.04 in 2.2 mi ESE 5.8 mph - N/A   Haze
8:30 PM 67 °F 51 °F 47% 30.03 in 1 mi ESE 3.5 mph - -   Haze
9:00 PM 64.4 °F 51.8 °F 64% 30.09 in 1.9 mi Calm Calm - N/A   Haze
10:00 PM 64.4 °F 51.8 °F 64% 30.09 in 1.9 mi Variable 2.3 mph - N/A   Haze
11:00 PM 64.4 °F 51.8 °F 64% 30.09 in 1.2 mi NE 3.5 mph - N/A   Haze
11:30 PM 63 °F 54 °F 63% 30.06 in 1 mi NE 4.6 mph - -   Haze